Wind_Speed
30 31 30 28 26 27 25 22 24 27 27 27 25 21 16 11 10 9 8 10 11 11 9 6 4 3 4 4 8 7 8 7 5 8 8 11 10 9 9 9 9 9 12 11 12
32 32 32 30 30 27 30 29 25 27 28 30 27 26 19 15 12 11 10 10 10 11 10 7 5 6 5 4 4 6 7 5 3 5 10 12 11 7 9 10 12 9 10 11 12
32 33 33 34 32 30 30 30 28 28 28 30 29 28 23 18 15 15 13 12 10 10 10 9 7 8 7 3 2 6 3 4 3 7 12 11 10 10 8 8 11 6 10 13 12
32 33 34 34 34 32 30 29 31 30 28 31 32 30 26 24 16 18 16 14 11 8 10 9 9 10 8 4 2 1 3 4 5 8 12 11 7 8 3 5 5 3 8 13 12
28 34 33 34 34 34 30 29 29 31 31 31 32 31 28 27 20 18 18 16 13 9 11 11 11 10 9 7 3 1 2 4 7 8 10 7 2 2 1 3 3 2 5 9 9
22 30 33 32 35 36 32 31 31 28 30 32 33 33 31 29 23 19 18 15 14 11 13 13 12 11 10 10 7 4 1 4 5 7 10 6 1 3 2 1 2 1 3 8 8
13 21 30 31 34 35 35 34 31 30 25 25 27 31 33 29 28 21 19 16 14 14 15 16 15 14 13 14 10 5 6 8 5 8 11 5 2 4 3 2 1 4 5 8 8
16 14 18 29 30 32 34 34 32 32 31 28 26 28 28 26 27 27 22 18 16 16 18 19 18 17 17 14 12 12 9 12 9 12 7 3 5 7 3 2 1 2 5 8 9
19 17 15 18 28 31 32 34 33 34 32 29 26 27 24 25 26 26 25 20 18 19 20 19 18 18 16 15 15 11 13 13 14 14 10 8 7 10 3 1 1 3 4 4 6
19 19 20 20 21 27 26 31 32 33 31 33 29 26 21 23 25 25 25 20 19 21 20 18 19 18 16 15 14 12 15 12 13 13 11 10 9 9 5 1 2 2 4 4 3
18 19 20 19 23 23 27 30 33 32 34 32 29 29 24 25 26 26 24 21 22 23 21 21 20 19 18 15 14 13 10 10 10 12 11 10 11 10 7 3 4 5 5 2 1
18 19 21 21 21 26 27 28 31 33 33 33 28 29 26 26 27 27 24 23 23 23 24 23 22 21 17 12 14 12 7 10 9 12 9 10 9 9 7 5 5 5 6 3 1
20 21 22 21 22 24 25 23 26 31 31 32 30 31 26 27 28 27 25 25 25 25 25 25 24 19 13 14 13 8 4 6 10 9 9 10 8 8 7 7 3 5 7 5 2
21 21 22 22 21 24 23 18 22 26 28 32 31 32 27 27 28 28 29 27 25 25 27 27 21 17 16 15 12 9 9 10 12 9 8 10 4 14 9 6 7 8 9 10 7
22 21 21 24 23 24 22 22 23 24 26 32 33 33 29 30 28 28 29 27 27 26 24 23 20 18 17 16 15 15 10 9 11 11 18 14 9 13 12 11 13 10 6 9 8
23 21 23 24 23 24 26 25 26 23 28 31 34 33 31 29 30 29 31 31 31 28 27 24 23 22 22 20 16 13 12 12 13 13 12 15 10 7 12 12 8 8 9 8 6
26 22 24 24 24 26 24 33 27 25 28 32 32 32 31 32 31 33 31 32 29 28 25 22 22 23 22 21 16 14 13 10 12 14 12 22 14 14 15 11 12 11 12 12 14
29 26 24 24 26 30 24 24 16 20 28 30 28 30 30 32 32 32 32 33 32 29 26 25 27 26 24 23 18 16 14 12 12 12 14 20 14 14 15 12 12 17 17 14 14
31 28 25 26 25 29 29 26 22 22 23 26 27 25 29 34 34 32 30 31 31 28 26 24 21 27 27 24 20 20 15 19 18 19 15 14 17 18 19 19 18 16 16 16 17
32 31 27 27 26 29 30 28 23 20 27 22 24 27 25 30 31 31 32 31 30 29 30 29 27 27 24 22 20 17 15 14 10 12 10 14 12 11 20 18 17 16 17 17 17
34 33 30 28 28 31 30 24 22 19 21 28 23 24 27 23 27 29 29 29 30 31 31 30 29 27 26 23 18 17 16 15 14 15 10 12 10 20 17 17 16 15 15 16 17
33 36 32 29 29 28 26 25 24 18 21 34 27 21 23 25 24 28 28 29 32 31 31 31 31 28 24 26 23 19 15 18 11 18 13 17 16 18 13 15 16 19 19 20 19
34 36 35 33 31 29 28 25 24 22 25 30 35 25 22 19 26 27 30 30 33 33 34 32 33 34 30 27 26 24 22 22 19 18 15 11 15 21 18 16 18 20 21 22 24
34 35 37 35 33 30 27 25 24 25 24 28 25 25 27 22 16 25 28 29 29 32 33 33 35 32 21 21 21 21 19 20 21 18 16 13 18 22 16 16 18 20 22 25 26
27 36 36 38 36 33 28 26 25 27 27 31 31 34 26 26 19 20 24 27 26 27 28 28 30 31 31 26 23 18 19 20 21 17 14 13 17 20 20 22 22 23 23 24 26
19 31 34 38 36 35 30 28 27 26 28 27 36 37 32 23 26 18 23 27 29 25 25 24 30 31 28 27 24 23 23 22 23 22 23 22 24 23 25 27 29 29 30 30 31
20 23 33 35 37 35 35 30 30 26 29 29 34 30 25 37 31 25 19 23 28 22 21 23 28 28 27 25 22 25 25 25 27 27 28 27 29 31 31 33 32 33 33 33 33
Wind_Direction
246 245 244 244 248 236 231 231 236 236 240 244 246 253 262 278 286 300 314 309 292 270 249 235 230 201 170 121 93 115 122 124 105 79 35 48 27 12 47 52 40 34 36 27 33
245 244 243 243 248 241 236 238 231 232 236 239 243 249 253 267 283 289 301 300 288 275 254 234 216 208 204 139 108 103 130 120 110 59 44 37 29 28 40 45 36 36 25 26 33
245 243 243 241 243 246 240 239 230 229 231 236 240 244 248 261 269 282 287 296 284 273 250 231 216 218 232 169 151 124 109 104 71 38 41 30 21 19 48 34 32 20 5 8 15
245 241 239 239 238 242 245 240 236 232 229 233 236 240 244 258 264 277 280 278 275 266 245 229 218 227 237 229 172 192 85 62 42 14 29 16 35 8 20 38 56 20 349 352 7
242 244 241 237 238 238 240 244 240 235 229 231 233 235 240 252 259 273 269 269 262 245 237 223 217 222 230 240 218 229 44 356 17 354 5 2 40 279 228 96 87 324 330 343 5
252 240 244 240 235 235 238 241 240 238 236 233 235 233 238 245 251 264 255 261 251 232 225 216 211 216 219 237 240 263 320 306 340 347 338 335 290 212 177 74 80 344 343 326 320
277 254 242 241 239 234 236 239 239 238 236 241 239 241 236 239 242 248 251 256 244 226 220 215 207 203 209 231 237 245 265 280 305 303 326 315 189 196 155 135 316 316 325 306 305
272 272 261 244 245 239 236 239 239 237 237 241 243 239 232 237 241 239 250 247 239 223 219 214 207 205 212 224 238 241 249 272 278 290 309 223 226 232 247 239 66 311 315 299 297
267 269 267 262 249 248 241 239 238 239 239 237 244 234 225 229 232 229 233 234 235 224 221 217 213 217 222 228 239 248 247 228 267 275 275 241 211 235 244 131 119 324 316 306 309
267 273 267 262 265 255 254 247 243 241 239 237 240 232 218 221 220 218 223 224 224 220 220 217 216 220 224 231 241 256 231 235 240 264 264 253 210 228 226 356 2 307 268 267 274
268 274 277 270 258 265 256 254 243 238 235 234 236 233 219 213 215 216 219 217 217 216 218 217 215 221 223 223 245 246 217 219 240 250 243 223 213 220 230 261 332 305 251 231 147
260 270 279 271 269 259 264 260 252 242 236 237 234 230 218 214 215 213 214 212 211 213 218 220 216 221 234 236 247 239 198 214 235 238 235 217 213 217 239 277 303 292 274 281 70
257 267 278 266 263 261 256 263 250 245 233 234 232 228 220 216 216 210 207 209 208 210 216 216 217 221 230 239 243 237 208 227 231 243 222 219 233 247 269 303 294 289 278 249 238
253 267 270 261 262 260 253 239 243 242 230 232 227 224 221 218 217 212 206 201 203 208 211 216 216 218 226 233 231 234 218 221 224 235 231 214 201 281 260 267 297 323 319 280 248
252 259 262 262 261 253 240 235 241 237 223 225 222 221 220 216 213 210 206 203 199 205 210 216 217 219 220 226 221 228 240 236 239 223 227 233 220 248 232 234 277 267 301 292 275
249 255 252 254 257 241 241 230 242 230 222 224 221 216 218 216 212 213 205 201 202 205 208 211 215 216 213 221 224 233 245 248 243 237 239 233 226 257 247 258 284 241 270 273 277
244 243 243 249 244 249 234 229 226 224 222 220 215 213 216 214 210 207 209 207 203 203 210 211 215 216 217 223 225 239 248 236 224 232 231 252 236 215 236 260 266 257 269 275 279
241 238 242 244 245 244 245 252 242 222 217 216 207 210 216 219 213 204 205 205 203 200 203 209 209 216 220 225 233 242 234 214 231 236 239 265 258 257 248 258 273 264 272 265 271
236 236 237 240 244 241 249 248 255 218 229 201 208 211 214 218 215 211 206 207 204 201 205 199 207 218 220 222 227 239 237 215 216 228 232 262 267 272 270 273 275 271 265 265 267
232 234 231 236 237 243 245 240 253 251 219 196 213 209 214 219 215 214 210 207 205 200 209 201 209 213 220 223 227 223 223 237 243 235 244 261 252 247 269 269 272 269 273 274 275
228 232 230 233 235 238 248 240 246 264 211 206 208 206 217 223 215 211 210 207 203 204 210 209 214 215 213 223 227 233 236 240 212 226 228 258 262 241 256 259 258 255 255 265 273
228 228 227 230 230 234 242 238 236 238 207 208 208 211 210 220 222 212 213 207 205 204 211 210 209 218 219 226 227 217 229 240 243 276 245 220 239 250 256 250 255 253 252 258 267
225 226 224 228 228 228 233 238 230 229 217 227 209 212 204 217 215 215 210 210 206 207 211 212 216 219 228 230 227 230 239 246 250 254 255 232 264 268 282 270 258 263 267 274 278
225 227 222 225 229 230 228 232 228 224 210 217 217 223 206 204 220 209 208 207 208 213 217 215 220 222 229 235 233 240 250 248 252 256 257 255 251 270 284 296 294 288 280 277 276
228 225 223 223 226 230 227 224 228 222 222 207 219 229 219 197 197 214 209 206 210 213 219 218 220 218 214 210 225 237 238 251 262 255 260 248 285 270 287 292 297 299 291 285 283
237 225 223 222 224 227 228 224 225 226 227 221 217 227 228 224 189 201 210 207 210 218 228 226 219 214 222 228 232 230 236 248 256 265 273 274 280 287 291 291 292 292 289 285 285
238 233 223 223 221 224 226 223 222 224 218 218 226 221 228 220 198 191 202 206 205 215 227 223 214 211 227 224 232 239 243 248 257 263 271 276 282 289 290 294 294 295 291 291 292
Height
5869 5871 5873 5875 5877 5879 5881 5884 5886 5889 5892 5895 5898 5900 5901 5901 5902 5902 5901 5901 5901 5902 5902 5903 5904 5905 5906 5908 5910 5912 5915 5916 5916 5917 5916 5913 5912 5909 5907 5904 5901 5900 5898 5897 5895
5862 5864 5866 5870 5872 5874 5876 5879 5881 5884 5887 5890 5893 5897 5898 5899 5899 5900 5900 5900 5900 5900 5901 5902 5903 5904 5906 5908 5910 5912 5914 5915 5915 5916 5915 5912 5910 5910 5907 5903 5901 5900 5899 5897 5895
5856 5858 5860 5864 5866 5868 5871 5874 5877 5879 5882 5885 5888 5892 5894 5896 5897 5899 5899 5898 5899 5899 5900 5901 5902 5904 5905 5907 5909 5911 5912 5913 5913 5914 5912 5910 5909 5907 5906 5904 5902 5900 5898 5896 5895
5849 5852 5854 5857 5860 5863 5866 5868 5872 5874 5876 5879 5883 5887 5889 5892 5894 5895 5897 5897 5897 5897 5898 5899 5901 5903 5904 5905 5907 5909 5910 5910 5912 5912 5911 5910 5908 5907 5905 5904 5903 5901 5898 5896 5895
5844 5845 5847 5851 5854 5858 5861 5863 5866 5869 5871 5873 5877 5881 5884 5887 5889 5891 5894 5894 5895 5895 5897 5897 5899 5902 5903 5904 5906 5907 5908 5908 5909 5910 5910 5909 5908 5906 5904 5903 5903 5901 5899 5896 5895
5838 5839 5841 5844 5848 5852 5855 5858 5862 5865 5866 5868 5871 5874 5878 5882 5885 5888 5890 5891 5892 5893 5894 5895 5897 5899 5901 5902 5904 5906 5908 5908 5909 5910 5909 5908 5907 5905 5904 5903 5903 5901 5899 5897 5895
5834 5834 5836 5838 5841 5846 5850 5853 5856 5860 5863 5864 5866 5868 5872 5877 5880 5884 5887 5888 5889 5890 5892 5893 5895 5897 5899 5900 5902 5904 5906 5907 5909 5909 5909 5908 5907 5905 5905 5904 5903 5902 5899 5897 5895
5830 5830 5830 5832 5835 5839 5844 5847 5851 5855 5859 5860 5862 5863 5866 5871 5875 5879 5883 5884 5885 5887 5889 5890 5893 5896 5897 5899 5901 5903 5905 5906 5907 5908 5909 5910 5910 5906 5905 5904 5903 5902 5899 5897 5894
5825 5826 5827 5828 5830 5834 5837 5841 5844 5848 5852 5855 5858 5859 5861 5866 5869 5874 5877 5880 5882 5884 5886 5888 5892 5894 5896 5898 5900 5901 5904 5907 5906 5906 5908 5909 5909 5906 5905 5903 5903 5902 5900 5897 5894
5820 5820 5822 5823 5825 5828 5831 5834 5838 5843 5847 5850 5853 5856 5858 5862 5865 5869 5872 5875 5878 5880 5884 5886 5889 5892 5894 5897 5900 5900 5902 5904 5904 5905 5906 5906 5905 5904 5904 5903 5903 5902 5899 5897 5895
5815 5815 5816 5817 5821 5823 5826 5829 5834 5838 5841 5845 5848 5851 5853 5855 5859 5864 5867 5870 5874 5877 5880 5883 5886 5889 5891 5895 5898 5899 5901 5901 5902 5903 5905 5905 5904 5903 5903 5902 5902 5901 5900 5897 5895
5810 5811 5812 5813 5815 5818 5820 5822 5826 5831 5835 5839 5843 5846 5848 5850 5854 5858 5862 5866 5869 5872 5876 5880 5882 5885 5889 5892 5894 5897 5899 5900 5901 5902 5903 5903 5903 5903 5902 5901 5901 5900 5899 5896 5895
5805 5806 5807 5808 5810 5812 5814 5818 5820 5823 5830 5833 5838 5841 5844 5846 5849 5853 5857 5861 5865 5868 5871 5875 5879 5883 5887 5889 5892 5893 5896 5898 5901 5901 5901 5901 5902 5901 5901 5900 5901 5900 5900 5897 5894
5800 5801 5801 5803 5806 5807 5810 5813 5814 5818 5825 5828 5832 5835 5839 5839 5844 5848 5851 5856 5860 5864 5866 5871 5876 5880 5883 5887 5889 5892 5894 5897 5898 5899 5903 5901 5909 5901 5899 5899 5899 5899 5898 5897 5894
5794 5795 5796 5797 5800 5803 5806 5808 5810 5814 5819 5822 5825 5830 5834 5837 5840 5844 5847 5852 5855 5859 5866 5870 5872 5877 5881 5884 5887 5889 5892 5894 5896 5898 5899 5899 5900 5901 5897 5896 5895 5896 5896 5895 5892
5788 5790 5791 5793 5795 5798 5800 5802 5806 5812 5813 5816 5819 5824 5828 5831 5834 5838 5843 5846 5850 5856 5860 5865 5868 5872 5878 5880 5884 5887 5889 5891 5893 5895 5896 5898 5897 5901 5895 5893 5892 5892 5892 5893 5891
5781 5784 5786 5788 5791 5792 5795 5797 5801 5803 5807 5810 5814 5819 5823 5826 5831 5834 5839 5843 5848 5852 5858 5863 5866 5869 5874 5877 5880 5884 5886 5889 5892 5892 5896 5891 5893 5896 5891 5890 5890 5889 5889 5889 5888
5774 5778 5781 5783 5786 5788 5792 5793 5795 5798 5800 5805 5809 5814 5818 5822 5826 5828 5833 5837 5843 5848 5854 5859 5862 5865 5870 5874 5878 5881 5883 5890 5889 5892 5894 5887 5888 5889 5887 5887 5887 5886 5885 5885 5884
5767 5772 5776 5778 5780 5783 5787 5788 5791 5792 5796 5800 5804 5809 5813 5816 5821 5826 5829 5835 5840 5845 5852 5856 5862 5862 5865 5870 5875 5875 5878 5882 5882 5884 5885 5888 5882 5881 5881 5882 5881 5882 5881 5881 5880
5760 5764 5770 5772 5774 5778 5781 5785 5786 5786 5790 5795 5799 5804 5808 5812 5817 5822 5825 5831 5836 5841 5845 5851 5854 5858 5862 5866 5869 5872 5875 5876 5878 5882 5882 5882 5880 5883 5875 5876 5876 5876 5874 5875 5874
5753 5757 5763 5766 5769 5773 5777 5780 5781 5781 5786 5791 5795 5798 5803 5808 5813 5817 5822 5827 5832 5837 5840 5846 5851 5855 5859 5861 5865 5867 5869 5871 5874 5875 5879 5880 5880 5873 5872 5871 5871 5871 5871 5869 5869
5745 5749 5755 5760 5765 5768 5772 5775 5777 5778 5783 5787 5789 5793 5798 5802 5807 5813 5817 5821 5826 5831 5837 5842 5846 5850 5856 5855 5860 5863 5867 5865 5870 5869 5871 5873 5874 5868 5869 5868 5867 5866 5865 5864 5864
5737 5742 5748 5753 5758 5762 5767 5770 5772 5775 5778 5781 5786 5788 5793 5799 5805 5809 5813 5817 5822 5826 5831 5837 5841 5845 5848 5852 5855 5857 5859 5861 5863 5865 5865 5870 5870 5863 5862 5863 5862 5860 5860 5859 5858
5731 5735 5741 5746 5751 5756 5762 5765 5768 5771 5774 5778 5782 5783 5788 5794 5799 5804 5810 5814 5818 5822 5826 5831 5834 5840 5847 5849 5850 5853 5855 5856 5857 5860 5862 5864 5862 5858 5857 5857 5855 5854 5853 5852 5850
5723 5727 5733 5738 5743 5749 5756 5761 5763 5767 5769 5775 5780 5782 5783 5789 5795 5802 5808 5812 5815 5818 5821 5825 5829 5834 5838 5842 5845 5849 5849 5850 5851 5854 5857 5856 5855 5852 5852 5850 5849 5847 5845 5843 5842
5717 5721 5726 5733 5738 5743 5748 5754 5758 5762 5766 5768 5774 5777 5781 5784 5790 5798 5803 5807 5811 5815 5817 5821 5824 5828 5832 5836 5839 5842 5843 5844 5845 5846 5847 5849 5847 5847 5845 5843 5842 5840 5837 5835 5834
5712 5714 5719 5725 5732 5737 5741 5748 5753 5756 5760 5765 5769 5772 5777 5781 5785 5791 5799 5803 5808 5811 5814 5817 5820 5825 5829 5832 5835 5836 5837 5839 5839 5839 5840 5841 5838 5838 5837 5835 5833 5831 5829 5826 5825